sat.trackr.live / text

‹ back to catalog

STARLINK-11580 [DTC]

NORAD 63011 · 2025-032G

PAYLOAD ACTIVE UNKNOWN

§ Identity

Operator
Country
US
Launch date
2025-02-15
Launch site
AFETR
Launch vehicle
Mass (kg)
RCS (m²)

Purposes: comms

External: N2YO · Heavens-Above · Gunter

§ Orbital elements

Epoch: 2026-09-21T13:45:36.190656Z

Period
91.67 min
Inclination
42.9998°
Eccentricity
0.0001582
Mean motion
15.70870817 rev/d
Perigee alt
355.3 km
Apogee alt
357.5 km
Semi-major
6,734.5 km
B*
9.5865e-4
RAAN
94.4011°
Arg perigee
265.3169°
Mean anomaly
94.7518°
Rev number
9,287

§ Raw data

STARLINK-11580 [DTC]1 63011U 25032G   26264.57333554  .00124581  00000+0  95865-3 0  99942 63011  42.9998  94.4011 0001582 265.3169  94.7518 15.70870817 92875

JSON: /api/v1/satellites/63011 · /tle

For live sub-satellite position, see the globe view (requires WebGL).

§ Visibility from observer

Set your observer location to see the next 7 days of passes ≥ 10°. The values pass through the URL so the page stays shareable.

No JS? Fill the form by hand. The geolocation button needs JavaScript.